Volver al catálogo

STARLINK-5428

ActivoComunicacionesVLEO
NORAD 54800·PAYLOAD·🇺🇸 United States

Lanzado Dec 17, 2022 desde Cape Canaveral Space Force Station

Loading…

Próximos Pases (próximas 24 horas)

TLE

ActualizadoSource: CelesTrak SupGP

Época: Sep 14, 2026, 21:00 UTC

1 54800C 22175AU  26257.87548611  .00043348  00000+0  13942-2 0  2575
2 54800  53.1571 258.0017 0001231  93.7470  69.9289 15.31673977    14

Sigue STARLINK-5428 en tiempo real con AllMySat

Download on the App Store